Location: Festilli
(46.4000°N, 11.6667°E)
Time: 21:16:56
(UTC+00:00)

Daily predictions for brighter satellites

Satellite Brightness Start Highest point End
(mag) Time Altitude Azimuth Time Altitude Azimuth Time Altitude Azimuth
CZ-2C R/B 3.4 17:22:41 10° SSE 17:28:27 86° WSW 17:33:59 10° NNW
Cosmos 1862 Rocket 4.0 17:24:17 10° N 17:28:34 42° ENE 17:32:49 10° SSE
Cosmos 2322 Rocket 2.5 17:25:29 10° S 17:30:47 45° ESE 17:36:07 10° NE
Aureole 2 Rocket 3.1 17:30:42 10° N 17:32:43 20° ENE 17:34:41 10° ESE
Sich 1 3.4 17:29:38 10° SSW 17:34:01 75° W 17:38:28 10° N
Nadezhda 3 Rocket 4.2 17:29:38 10° N 17:35:50 50° ENE 17:42:00 10° SSE
Cosmos 1461 3.4 17:31:20 10° SW 17:36:04 76° NW 17:40:50 10° NE
ATLAS 5 CENTAUR R/B 4.1 17:20:20 10° SW 17:36:44 58° NW 17:41:01 10° NE
Meteor 1-25 Rocket 4.3 17:32:13 10° S 17:37:55 67° E 17:43:34 10° NNE
Cosmos 2074 Rocket 4.0 17:35:45 10° S 17:42:00 79° E 17:48:17 10° N
Cosmos 2154 Rocket 4.1 17:36:17 10° SSE 17:42:17 53° E 17:48:17 10° NNE
YAOGAN 1 2.5 17:39:12 10° SSE 17:43:28 65° ENE 17:47:46 10° N
Abrixas rocket 1.7 17:41:13 10° W 17:43:43 64° N 17:45:57 12° ENE
Helios 1A Rocket 3.4 17:39:58 10° SE 17:43:43 38° ENE 17:47:28 10° N
APEX 3.7 17:44:03 10° NW 17:46:44 42° WSW 17:49:18 10° S
Cosmos 2219 Rocket 3.7 17:46:01 10° SE 17:48:41 14° E 17:51:22 10° ENE
COSMO-SKYMED 1 3.3 17:45:37 10° N 17:49:55 60° WNW 17:54:11 10° SSW
GP-B 3.9 17:47:06 10° SE 17:50:57 30° E 17:54:49 10° NNE
Cosmos 1992 Rocket 4.1 17:49:32 10° S 17:54:39 57° ESE 17:59:47 10° NNE
SL-16 R/B 2.2 17:49:35 10° SSW 17:55:15 87° ESE 18:00:59 10° NNE
Cosmos 2263 Rocket 3.5 17:50:08 10° NW 17:55:22 43° WSW 18:00:35 10° S
Meteor 1-18 Rocket 4.3 17:50:10 10° N 17:56:07 71° ENE 18:02:00 10° SSE
Cosmos 968 Rocket 3.7 17:51:04 10° NNW 17:56:21 79° WSW 18:01:36 10° SSE
ARGOS 3.2 17:51:12 10° SSE 17:56:34 67° ENE 18:01:58 10° N
USA 234 3.9 17:53:24 10° ENE 17:59:19 36° SE 18:05:13 10° SSW
Cosmos 1486 Rocket 4.1 17:54:47 10° NNW 18:00:06 83° WSW 18:05:25 10° SSE
Cosmos 1515 3.6 17:56:32 10° N 18:00:23 86° E 18:04:11 10° S
Okean 1 3.3 17:56:25 10° N 18:00:29 83° E 18:04:30 10° S
SJ 16-02 3.5 18:01:27 10° NE 18:01:58 10° NE 18:02:30 10° NE
Cosmos 1633 Rocket 3.3 17:58:07 10° SSW 18:02:31 74° W 18:06:59 10° N
Cosmos 2184 Rocket 4.2 17:56:29 10° SSW 18:02:38 77° W 18:08:52 10° N
SeaSat 1 2.7 17:57:56 10° NE 18:02:43 47° ESE 18:07:27 10° S
OBJECT-B 2.7 18:03:22 14° ENE 18:03:22 14° ENE 18:04:49 10° NNE
Okean 1-7 3.7 18:00:00 10° N 18:03:58 33° ENE 18:07:52 10° SE
CZ-4 R/B 2.0 18:04:10 10° S 18:07:56 57° W 18:11:49 10° NNW
H-2A R/B 2.5 18:02:31 10° S 18:07:57 72° WSW 18:13:24 10° NNW
CZ-2C R/B 2.8 18:02:45 10° NNE 18:08:08 53° E 18:13:22 10° S
SAR-Lupe-4 3.4 18:07:07 10° NNE 18:10:42 74° ESE 18:14:16 10° S
USA 305 4.3 18:07:49 10° WNW 18:11:36 30° N 18:14:50 13° NE
SL-8 Rocket 4.4 18:08:38 10° SSE 18:14:19 38° E 18:19:58 10° NNE
Gbstr 26 Del rocket 4.0 18:10:02 10° W 18:14:20 47° N 18:18:27 16° ENE
DMSP B5D2-2 4.5 18:09:36 10° NNE 18:14:30 39° E 18:19:21 10° SSE
Cosmos 2237 4.2 18:08:53 10° SSW 18:14:33 68° ESE 18:20:16 10° NNE
SL-4 R/B 2.4 18:13:39 10° WNW 18:17:00 39° N 18:18:38 23° ENE
Cosmos 1869 Rocket 4.4 18:15:42 10° SSE 18:19:22 27° E 18:23:04 10° NNE
USA 307 4.3 18:19:10 10° WNW 18:22:58 29° N 18:25:41 16° NE
USA 186 3.0 18:25:08 19° NNE 18:25:08 19° NNE 18:26:07 10° N
ATLAS CENTAUR R/B 0.9 18:20:44 10° SSW 18:24:20 66° SE 18:26:57 18° NE
FALCON 9 DEB 3.0 18:21:27 10° WNW 18:24:53 73° NNE 18:26:13 34° ESE
USA 306 4.3 18:22:38 10° WNW 18:26:24 29° N 18:28:56 17° NE
Cosmos 1354 Rocket 3.9 18:21:33 10° NNW 18:26:50 84° ENE 18:32:04 10° SSE
Okean-O 3.7 18:23:32 10° S 18:27:48 47° W 18:32:06 10° NNW
ERS-2 2.6 18:24:20 10° N 18:27:57 63° WNW 18:31:34 10° SSW
Cosmos 44 Rocket 4.3 18:23:14 10° NW 18:28:19 51° WSW 18:33:19 10° SSE
CSL-04 Rocket 3.8 18:23:30 10° SSE 18:29:03 83° WSW 18:34:36 10° NNW
Cosmos 2366 rocket 4.4 18:23:28 10° SSE 18:29:17 41° E 18:35:10 10° NNE
CSL-04 Debris 4.4 18:24:58 10° S 18:30:25 76° WSW 18:35:55 10° NNW
Cosmos 1844 Rocket 2.6 18:25:01 10° NNW 18:30:37 82° ENE 18:36:09 10° SSE
Cosmos 2084 Rocket 4.0 18:26:33 10° NW 18:30:50 59° SW 18:34:59 12° SSE
USA 308 4.3 18:29:51 10° WNW 18:33:37 29° N 18:35:51 19° NE
Cosmos 1666 2.7 18:30:06 10° S 18:33:42 49° E 18:37:19 10° NNE
Cosmos 1777 Rocket 4.2 18:30:24 10° NNW 18:35:30 48° ENE 18:37:59 27° ESE
Cosmos 1503 Rocket 4.2 18:31:51 10° NNW 18:37:01 70° WSW 18:42:09 10° S
Cosmos 2341 Rocket 3.9 18:31:22 10° S 18:37:38 73° E 18:43:53 10° NNE
Meteor 1-5 Rocket 4.0 18:32:41 10° S 18:37:59 70° E 18:43:29 10° NNE
Cosmos 2333 4.3 18:33:04 10° S 18:38:29 49° ESE 18:43:58 10° NE
Cosmos 1844 3.6 18:36:37 10° NNW 18:42:27 84° ENE 18:46:58 17° SSE
Okean 3 3.8 18:38:32 10° N 18:42:34 40° ENE 18:42:57 39° E
Ariane Rocket 3.2 18:42:04 28° SE 18:44:28 49° ENE 18:49:23 10° N
Cosmos 2360 Rocket 2.2 18:38:59 10° SSW 18:44:38 85° WNW 18:50:21 10° NNE
Cosmos 2278 Rocket 3.2 18:43:05 10° N 18:47:50 26° NE 18:48:36 26° ENE
Cosmos 1727 Rocket 4.3 18:44:53 10° N 18:50:46 44° ENE 18:52:57 33° ESE
Cosmos 1500 4.4 18:48:56 10° SSW 18:52:30 43° WNW 18:56:06 10° N
Meteor 2-4 Rocket 4.2 18:48:24 10° NNW 18:54:12 66° W 19:00:03 10° S
Cosmos 1703 Rocket 3.7 18:50:01 10° NNW 18:54:24 72° W 18:58:45 10° S
Cosmos 2333 Rocket 2.3 18:49:16 10° S 18:54:44 53° ESE 19:00:18 10° NE
Cosmos 2218 Rocket 4.0 18:49:53 10° S 18:56:12 67° E 19:02:33 10° NNE
Cosmos 1943 Rocket 4.4 19:05:31 10° NNE 19:06:26 10° NNE 19:06:52 10° NE
Resurs 01 Rocket 2.8 19:12:41 29° NNE 19:12:41 29° NNE 19:15:15 10° N
Cosmos 864 Rocket 4.3 19:06:51 10° S 19:12:59 82° E 19:19:14 10° N
Cosmos 2322 Rocket 3.9 19:09:58 10° WSW 19:14:59 33° NW 19:20:02 10° NNE
Lacrosse 4 Rocket 2.8 19:12:20 10° SSW 19:14:29 28° S 19:14:29 28° S
SME Rocket 4.1 19:09:58 10° NNE 19:18:20 88° ESE 19:23:40 10° SSW
Cosmos 1959 Rocket 4.4 19:12:20 10° S 19:18:25 88° W 19:24:35 10° N
Cosmos 192 4.3 19:17:03 10° SSW 19:21:57 82° WNW 19:26:54 10° NNE
SJ-6B 3.6 19:22:30 39° SSW 19:23:38 52° W 19:27:37 10° NNW
COSMOS 2428 2.6 19:19:10 10° SSW 19:24:47 67° ESE 19:24:51 67° ESE
ASTEX 1 3.4 19:22:40 10° N 19:27:34 76° W 19:30:11 27° SSW
MOS 1 4.4 19:25:33 31° S 19:28:22 74° WSW 19:34:05 10° NNW
Meteor 1-23 Rocket 4.0 19:24:28 10° N 19:30:05 78° ENE 19:30:27 74° ESE
Meteor 1-11 Rocket 3.8 19:26:01 10° SSW 19:31:45 75° WNW 19:37:23 10° N
Cosmos 2219 Rocket 2.0 19:26:10 10° SSW 19:31:46 88° ESE 19:37:25 10° NNE
OBJECT-B 3.1 19:36:26 23° NW 19:36:26 23° NW 19:38:01 10° NNW
Resurs 1-3 4.1 19:38:47 58° NW 19:38:47 58° NW 19:42:29 10° NNW
SeaSat 1 4.2 19:35:46 10° N 19:40:03 30° NW 19:44:19 10° WSW
SJ 16-02 2.6 19:37:00 10° NNW 19:39:34 34° N 19:39:34 34° N
USA 234 3.3 19:39:54 38° NE 19:42:41 78° NNW 19:49:14 10° WSW
Meteor 2-20 Rocket 4.4 19:43:29 10° N 19:49:07 73° NNE 19:49:07 73° NNE
Cosmos 2369 Rocket 4.5 19:49:33 10° NNE 19:50:42 12° NNE 19:50:42 12° NNE
Cosmos 2322 4.3 19:46:19 10° SW 19:51:54 54° WNW 19:57:32 10° NNE
BREEZE-M DEB (TANK) 3.6 19:49:11 10° WNW 19:51:09 45° WNW 19:51:09 45° WNW
SL-4 R/B 4.4 19:53:16 10° WNW 19:54:13 17° WNW 19:54:13 17° WNW
Gbstr 26 Del rocket 4.2 19:57:02 10° WNW 20:00:59 49° NNW 20:00:59 49° NNW
ATLAS CENTAUR R/B 3.9 20:01:09 10° WNW 20:03:10 16° NW 20:03:10 16° NW
NOSS 3-3 (A) 4.4 20:11:11 10° NW 20:18:42 89° NW 20:18:42 89° NW
NOSS 3-3 (C) 4.4 20:11:17 10° NW 20:18:47 89° N 20:18:47 89° N
Cosmos 2278 Rocket 3.3 20:26:45 10° NNW 20:30:28 40° NW 20:30:28 40° NW
Cosmos 2333 Rocket 3.9 20:34:22 10° WSW 20:39:18 30° NW 20:44:19 10° N
Resurs 01 Rocket 4.5 20:50:14 15° NW 20:50:14 15° NW 20:51:18 10° NW
Cosmos 1943 Rocket 4.3 20:46:32 10° NNW 20:48:24 20° N 20:48:24 20° N
Cosmos 2219 Rocket 4.5 21:12:31 10° W 21:16:30 19° NW 21:20:31 10° N
